Location: Newark
(45.9456°N, 15.4064°E)
Time: 17:36:16
(UTC+00:00)

SR - Pass Details

Date: 04 February 2020
Orbit: 575 x 880 km, 66.7° (Epoch: 22 February)

Event Time Altitude Azimuth Distance (km) Brightness Sun altitude
Rises 04:37:55 0° 318° (NW) 3,344 - -17.6°
Reaches altitude 10° 04:40:48 10° 306° (NW) 2,358 - -17.1°
Exits shadow 04:44:54 25° 256° (WSW) 1,481 ? -16.4°
Maximum altitude 04:45:08 25° 252° (WSW) 1,474 ? -16.3°
Drops below altitude 10° 04:49:11 10° 198° (SSW) 2,179 ? -15.6°
Sets 04:51:44 0° 185° (S) 3,037 ? -15.2°
